Retour au catalogue

CZ-4C DEB

ActifPO
NORAD 43410·DEBRIS·🇨🇳 China

Lancé Sep 23, 2013 depuis Taiyuan Satellite Launch Center

Loading…

Prochains Passages (prochaines 24 heures)

TLE

FraisSource: Space-Track

Époque: Sep 14, 2026, 05:29 UTC

1 43410U 13052E   26257.22861138  .00000349  00000-0  31852-3 0  9994
2 43410  98.8319  34.6383 0242823 167.4805 193.2528 13.76540754642780

Suivez CZ-4C DEB en temps réel avec AllMySat

Download on the App Store